User: anonymous   Login
Location: Newark
(56.0692°N, 115.8617°E)
Time: 18:40:48
(UTC+00:00)
Language:

SR - Orbit

View from above orbital plane
View from above orbital plane
View from above satellite
View from above satellite

Ground track
Ground track

The orbit data is extracted from the following two-line orbital elements,

1    46U 60007B   20157.87101434 -.00000018 +00000-0 +19564-4 0  9995
2    46 066.6913 077.8065 0205247 141.5133 220.0820 14.49298052137430
Epoch (UTC): 05 June 2020 20:54:15
Eccentricity: 0.0205247
inclination: 66.6913°
perigee height: 582 km
apogee height: 874 km
right ascension of ascending node: 77.8065°
argument of perigee: 141.5133°
revolutions per day: 14.49298052
mean anomaly at epoch: 220.0820°
orbit number at epoch: 13743

The dashed part of the orbit path shows where the satellite is in the earth's shadow,  

DLR